Weather History for McAlester, OK

Change the Weather History Date:

Sunday, July 7, 2013

  Actual Average Record
Temperature  
Mean Temperature 80 °F -  
Max Temperature 93 °F 91 °F 106 °F (1954)
Min Temperature 68 °F 70 °F 56 °F (1972)
Cooling Degree Days 14    
Growing Degree Days 30 (Base 50)    
Moisture  
Dew Point 65 °F    
Average Humidity 58    
Maximum Humidity 87    
Minimum Humidity 38    
Precipitation  
Precipitation 0.00 in - - ()
Sea Level Pressure  
Sea Level Pressure 29.98 in    
Wind  
Wind Speed 4 mph (SSE)    
Max Wind Speed 9 mph    
Max Gust Speed -    
Visibility 10 miles    
Events      
Averages and records for this station are not official NWS values.
T = Trace of Precipitation, MM = Missing Value Source: NWS Daily Summary

Daily Weather History Graph

Daily Weather History Graph

Search for Another Location

Airport:

Trip Planner

Search our weather history database for the weather conditions in past years. The results will help you decide how hot, cold, wet, or windy it might be!

Date:

Astronomy

Jul. 07, 2013 Rise Set
Actual Time 6:16 AM CDT 8:39 PM CDT
Civil Twilight 5:46 AM CDT 9:09 PM CDT
Nautical Twilight 5:10 AM CDT 9:45 PM CDT
Astronomical Twilight 4:31 AM CDT 10:24 PM CDT
Moon 5:50 AM CDT (7/7) 8:07 PM CDT (7/7)
Length of Visible Light 15h 22m
Length of Day
14h 23m
Waning Crescent, 0% of the Moon is Illuminated
Jul 7
Waning Crescent
Jul 8
New
Jul 15
First Quarter
Jul 22
Full
Jul 29
Last Quarter

Hourly Weather History & Observations

Time (CDT) Temp. Heat Index Dew Point Humidity Pressure Visibility Wind Dir Wind Speed Gust Speed Precip Events Conditions
12:53 AM 79.0 °F - 61.0 °F 54% 29.96 in 10.0 mi SSE 4.6 mph - N/A   Clear
1:53 AM 73.9 °F - 62.1 °F 66% 29.96 in 10.0 mi SE 3.5 mph - N/A   Clear
2:53 AM 73.9 °F - 62.1 °F 66% 29.96 in 10.0 mi SE 3.5 mph - N/A   Clear
3:53 AM 72.0 °F - 63.0 °F 73% 29.95 in 10.0 mi SE 3.5 mph - N/A   Scattered Clouds
4:53 AM 72.0 °F - 64.0 °F 76% 29.95 in 10.0 mi SSE 3.5 mph - N/A   Clear
5:53 AM 69.1 °F - 64.0 °F 84% 29.96 in 10.0 mi Calm Calm - N/A   Clear
6:53 AM 68.0 °F - 64.0 °F 87% 29.99 in 10.0 mi Calm Calm - N/A   Partly Cloudy
7:53 AM 75.0 °F - 66.0 °F 73% 29.99 in 10.0 mi Calm Calm - N/A   Scattered Clouds
8:53 AM 80.1 °F 82.7 °F 68.0 °F 67% 30.01 in 10.0 mi Variable 5.8 mph - N/A   Clear
9:53 AM 82.9 °F 85.8 °F 68.0 °F 60% 30.01 in 10.0 mi SSE 8.1 mph - N/A   Clear
10:53 AM 86.0 °F 89.4 °F 68.0 °F 55% 30.01 in 10.0 mi Variable 6.9 mph - N/A   Clear
11:53 AM 88.0 °F 90.7 °F 66.9 °F 49% 30.01 in 10.0 mi SSW 9.2 mph - N/A   Clear
12:53 PM 90.0 °F 92.4 °F 66.0 °F 45% 29.99 in 10.0 mi SE 4.6 mph - N/A   Clear
1:53 PM 88.0 °F 89.6 °F 64.9 °F 46% 29.99 in 10.0 mi SSW 5.8 mph - N/A   Scattered Clouds
2:53 PM 91.9 °F 94.1 °F 64.9 °F 41% 29.98 in 10.0 mi Variable 5.8 mph - N/A   Partly Cloudy
3:53 PM 91.9 °F 93.3 °F 64.0 °F 39% 29.97 in 10.0 mi Calm Calm - N/A   Partly Cloudy
4:53 PM 91.0 °F 93.0 °F 64.9 °F 42% 29.96 in 10.0 mi SSE 6.9 mph - N/A   Clear
5:53 PM 91.9 °F 92.9 °F 63.0 °F 38% 29.94 in 10.0 mi Calm Calm - N/A   Clear
6:53 PM 91.0 °F 92.6 °F 64.0 °F 41% 29.94 in 10.0 mi Variable 6.9 mph - N/A   Mostly Cloudy
7:53 PM 87.1 °F 88.9 °F 64.9 °F 48% 29.95 in 10.0 mi South 3.5 mph - N/A   Clear
8:53 PM 84.0 °F 85.4 °F 64.0 °F 51% 29.96 in 10.0 mi South 3.5 mph - N/A   Clear
9:53 PM 79.0 °F - 64.9 °F 62% 29.98 in 10.0 mi Calm Calm - N/A   Clear
10:53 PM 77.0 °F - 64.9 °F 66% 29.99 in 10.0 mi ESE 4.6 mph - N/A   Clear
11:53 PM 77.0 °F - 64.0 °F 64% 30.00 in 10.0 mi ESE 4.6 mph - N/A   Clear